TimeEST,TemperatureF,Dew PointF,Humidity,Sea Level PressureIn,VisibilityMPH,Wind Direction,Wind SpeedMPH,Gust SpeedMPH,PrecipitationIn,Events,Conditions,WindDirDegrees,DateUTC
12:15 AM,44.6,-9999,N/A,30.25,10.0,North,-9999.0,-,N/A,,Overcast,0,2012-11-16 05:15:00
12:35 AM,44.6,-9999,N/A,30.25,10.0,North,-9999.0,-,N/A,,Overcast,0,2012-11-16 05:35:00
12:55 AM,44.6,-9999,N/A,30.25,10.0,Calm,Calm,-,N/A,,Scattered Clouds,0,2012-11-16 05:55:00
1:15 AM,42.8,-9999,N/A,30.25,9.0,North,-9999.0,-,N/A,,Clear,0,2012-11-16 06:15:00
1:35 AM,39.2,-9999,N/A,30.25,8.0,Calm,Calm,-,N/A,,Clear,0,2012-11-16 06:35:00
1:55 AM,41.0,-9999,N/A,30.25,7.0,North,-9999.0,-,N/A,,Clear,0,2012-11-16 06:55:00
2:15 AM,39.2,-9999,N/A,30.25,7.0,North,-9999.0,-,N/A,,Clear,0,2012-11-16 07:15:00
2:35 AM,39.2,-9999,N/A,30.25,1.8,North,-9999.0,-,N/A,,Clear,0,2012-11-16 07:35:00
2:55 AM,37.4,-9999,N/A,30.25,6.0,Calm,Calm,-,N/A,,Clear,0,2012-11-16 07:55:00
3:15 AM,37.4,-9999,N/A,30.25,6.0,Calm,Calm,-,N/A,,Clear,0,2012-11-16 08:15:00
3:35 AM,37.4,-9999,N/A,30.25,4.0,Calm,Calm,-,N/A,,Clear,0,2012-11-16 08:35:00
3:55 AM,35.6,-9999,N/A,30.25,7.0,North,-9999.0,-,N/A,,Clear,0,2012-11-16 08:55:00
4:15 AM,35.6,-9999,N/A,30.25,3.0,Calm,Calm,-,N/A,,Clear,0,2012-11-16 09:15:00
4:35 AM,35.6,-9999,N/A,30.25,6.0,Calm,Calm,-,N/A,,Clear,0,2012-11-16 09:35:00
4:55 AM,33.8,-9999,N/A,30.25,6.0,Calm,Calm,-,N/A,,Clear,0,2012-11-16 09:55:00
5:15 AM,33.8,-9999,N/A,30.26,4.0,Calm,Calm,-,N/A,,Clear,0,2012-11-16 10:15:00
5:35 AM,33.8,-9999,N/A,30.26,8.0,Calm,Calm,-,N/A,,Clear,0,2012-11-16 10:35:00
5:55 AM,33.8,-9999,N/A,30.26,1.0,North,-9999.0,-,N/A,,Clear,0,2012-11-16 10:55:00
6:15 AM,33.8,-9999,N/A,30.26,1.5,North,-9999.0,-,N/A,,Overcast,0,2012-11-16 11:15:00
6:35 AM,33.8,-9999,N/A,30.27,0.2,North,-9999.0,-,N/A,,Overcast,0,2012-11-16 11:35:00
6:55 AM,33.8,-9999,N/A,30.27,0.2,Calm,Calm,-,N/A,,Overcast,0,2012-11-16 11:55:00
7:15 AM,33.8,-9999,N/A,30.28,0.2,Calm,Calm,-,N/A,,Overcast,0,2012-11-16 12:15:00
7:35 AM,33.8,-9999,N/A,30.29,0.2,North,-9999.0,-,N/A,,Overcast,0,2012-11-16 12:35:00
7:55 AM,37.4,-9999,N/A,30.29,0.5,Calm,Calm,-,N/A,,Unknown,0,2012-11-16 12:55:00
8:15 AM,37.4,-9999,N/A,30.29,2.5,Calm,Calm,-,N/A,,Clear,0,2012-11-16 13:15:00
8:35 AM,41.0,-9999,N/A,30.30,6.0,Calm,Calm,-,N/A,,Clear,0,2012-11-16 13:35:00
8:55 AM,42.8,-9999,N/A,30.31,10.0,Calm,Calm,-,N/A,,Clear,0,2012-11-16 13:55:00
9:15 AM,44.6,44.6,100,30.31,10.0,SE,4.6,-,N/A,,Clear,140,2012-11-16 14:15:00
9:35 AM,46.4,44.6,93,30.31,10.0,East,4.6,-,N/A,,Clear,100,2012-11-16 14:35:00
9:55 AM,48.2,42.8,82,30.31,10.0,ESE,3.5,-,N/A,,Clear,110,2012-11-16 14:55:00
10:15 AM,50.0,37.4,62,30.31,10.0,SE,4.6,-,N/A,,Clear,140,2012-11-16 15:15:00
10:35 AM,51.8,35.6,54,30.31,10.0,SSE,3.5,-,N/A,,Clear,150,2012-11-16 15:35:00
10:55 AM,53.6,35.6,51,30.31,10.0,Calm,Calm,-,N/A,,Clear,0,2012-11-16 15:55:00
11:15 AM,53.6,35.6,51,30.30,10.0,Calm,Calm,-,N/A,,Clear,0,2012-11-16 16:15:00
11:35 AM,55.4,33.8,44,30.30,10.0,SE,4.6,-,N/A,,Clear,130,2012-11-16 16:35:00
11:55 AM,55.4,33.8,44,30.29,10.0,ESE,4.6,-,N/A,,Clear,110,2012-11-16 16:55:00
12:15 PM,57.2,33.8,41,30.28,10.0,South,6.9,-,N/A,,Clear,170,2012-11-16 17:15:00
12:35 PM,57.2,33.8,41,30.27,10.0,SE,5.8,-,N/A,,Clear,140,2012-11-16 17:35:00
12:55 PM,57.2,33.8,41,30.26,10.0,Calm,Calm,-,N/A,,Clear,0,2012-11-16 17:55:00
1:15 PM,57.2,35.6,44,30.25,10.0,ESE,3.5,-,N/A,,Clear,110,2012-11-16 18:15:00
1:35 PM,59.0,35.6,42,30.25,10.0,ESE,4.6,-,N/A,,Clear,120,2012-11-16 18:35:00
1:55 PM,59.0,35.6,42,30.24,10.0,Calm,Calm,-,N/A,,Clear,0,2012-11-16 18:55:00
2:15 PM,60.8,35.6,39,30.24,10.0,ESE,3.5,-,N/A,,Clear,110,2012-11-16 19:15:00
2:35 PM,60.8,35.6,39,30.23,10.0,SSW,3.5,-,N/A,,Clear,200,2012-11-16 19:35:00
2:55 PM,60.8,35.6,39,30.23,10.0,Calm,Calm,-,N/A,,Clear,0,2012-11-16 19:55:00
3:15 PM,60.8,35.6,39,30.23,10.0,SSE,3.5,-,N/A,,Clear,150,2012-11-16 20:15:00
3:35 PM,60.8,35.6,39,30.23,10.0,Calm,Calm,-,N/A,,Clear,0,2012-11-16 20:35:00
3:55 PM,60.8,35.6,39,30.23,10.0,Calm,Calm,-,N/A,,Clear,0,2012-11-16 20:55:00
4:15 PM,60.8,35.6,39,30.23,10.0,Calm,Calm,-,N/A,,Clear,0,2012-11-16 21:15:00
4:35 PM,59.0,35.6,42,30.24,10.0,SE,3.5,-,N/A,,Clear,130,2012-11-16 21:35:00
4:55 PM,57.2,35.6,44,30.24,10.0,Calm,Calm,-,N/A,,Clear,0,2012-11-16 21:55:00
5:15 PM,57.2,37.4,48,30.24,10.0,North,-9999.0,-,N/A,,Clear,0,2012-11-16 22:15:00
5:35 PM,51.8,41.0,67,30.24,10.0,North,-9999.0,-,N/A,,Clear,0,2012-11-16 22:35:00
5:55 PM,48.2,39.2,71,30.25,10.0,Calm,Calm,-,N/A,,Clear,0,2012-11-16 22:55:00
6:15 PM,44.6,42.8,93,30.25,10.0,Calm,Calm,-,N/A,,Clear,0,2012-11-16 23:15:00
6:35 PM,44.6,44.6,100,30.26,10.0,Calm,Calm,-,N/A,,Clear,0,2012-11-16 23:35:00
6:55 PM,41.0,41.0,100,30.26,10.0,Calm,Calm,-,N/A,,Clear,0,2012-11-16 23:55:00
7:15 PM,42.8,42.8,100,30.27,10.0,Calm,Calm,-,N/A,,Clear,0,2012-11-17 00:15:00
7:35 PM,41.0,41.0,100,30.27,10.0,Calm,Calm,-,N/A,,Clear,0,2012-11-17 00:35:00
7:55 PM,39.2,39.2,100,30.27,10.0,Calm,Calm,-,N/A,,Clear,0,2012-11-17 00:55:00
8:15 PM,39.2,-9999,N/A,30.27,10.0,Calm,Calm,-,N/A,,Clear,0,2012-11-17 01:15:00
8:35 PM,37.4,-9999,N/A,30.28,10.0,Calm,Calm,-,N/A,,Clear,0,2012-11-17 01:35:00
8:55 PM,37.4,-9999,N/A,30.28,10.0,Calm,Calm,-,N/A,,Clear,0,2012-11-17 01:55:00
9:15 PM,35.6,-9999,N/A,30.29,10.0,Calm,Calm,-,N/A,,Clear,0,2012-11-17 02:15:00
9:35 PM,35.6,-9999,N/A,30.29,10.0,Calm,Calm,-,N/A,,Clear,0,2012-11-17 02:35:00
9:55 PM,37.4,-9999,N/A,30.30,10.0,Calm,Calm,-,N/A,,Clear,0,2012-11-17 02:55:00
10:15 PM,35.6,-9999,N/A,30.30,10.0,Calm,Calm,-,N/A,,Clear,0,2012-11-17 03:15:00
10:35 PM,35.6,-9999,N/A,30.30,10.0,Calm,Calm,-,N/A,,Clear,0,2012-11-17 03:35:00
10:55 PM,35.6,-9999,N/A,30.31,10.0,Calm,Calm,-,N/A,,Clear,0,2012-11-17 03:55:00
11:15 PM,35.6,-9999,N/A,30.31,10.0,Calm,Calm,-,N/A,,Clear,0,2012-11-17 04:15:00
11:35 PM,33.8,-9999,N/A,30.31,10.0,Calm,Calm,-,N/A,,Clear,0,2012-11-17 04:35:00
11:55 PM,33.8,-9999,N/A,30.31,10.0,Calm,Calm,-,N/A,,Clear,0,2012-11-17 04:55:00